Date,TemperatureHighF,TemperatureAvgF,TemperatureLowF,DewpointHighF,DewpointAvgF,DewpointLowF,HumidityHigh,HumidityAvg,HumidityLow,PressureMaxIn,PressureMinIn,WindSpeedMaxMPH,WindSpeedAvgMPH,GustSpeedMaxMPH,PrecipitationSumIn
2014-1-1,25,18,10,15,12,6,89,77,62,30.43,30.22,6,0,9,0.01
2014-1-2,18,11,1,16,8,-2,93,89,85,30.42,29.96,5,0,8,0.00
2014-1-3,13,5,-5,6,-1,-12,92,77,57,30.46,29.85,8,0,11,0.00
2014-1-4,24,8,-10,15,0,-16,83,69,51,30.54,30.29,6,0,14,0.01
2014-1-5,36,26,10,33,21,6,100,81,64,30.37,30.00,0,0,9,0.11
2014-1-6,48,35,25,48,34,21,100,98,84,30.00,29.33,5,0,10,0.18
2014-1-7,25,12,6,21,2,-4,83,66,57,30.26,29.55,11,0,13,0.00
2014-1-8,19,12,3,10,4,-3,81,71,64,30.50,30.26,4,0,9,0.00
2014-1-9,27,17,8,16,10,4,85,75,59,30.69,30.47,4,0,6,0.01
2014-1-10,34,22,5,33,21,1,100,95,83,30.66,30.32,0,0,0,0.03
2014-1-11,52,41,32,52,41,32,100,100,100,30.32,29.32,0,0,11,0.38
2014-1-12,48,40,34,48,36,30,100,87,75,30.01,29.33,5,0,11,0.03
2014-1-13,48,38,27,40,34,27,100,86,66,30.17,29.93,3,0,9,0.00
2014-1-14,44,41,37,44,41,37,100,99,94,29.93,29.68,0,0,4,0.63
2014-1-15,44,35,29,41,35,29,100,99,89,30.07,29.82,0,0,2,0.01
2014-1-16,37,33,29,37,33,29,100,100,100,29.98,29.91,0,0,0,0.00
2014-1-17,40,34,29,35,32,28,100,92,68,30.03,29.96,1,0,8,0.00
2014-1-18,34,31,29,34,31,28,100,100,99,29.98,29.69,0,0,0,0.33
2014-1-19,32,30,28,32,29,25,100,95,87,29.79,29.58,6,0,8,0.04
2014-1-20,40,33,22,33,28,14,93,82,69,29.95,29.54,8,0,10,0.00
2014-1-21,22,14,9,14,5,-2,83,66,51,30.12,29.95,0,0,4,0.00
2014-1-22,18,10,5,5,-1,-6,83,61,49,29.96,29.73,1,0,4,0.00
2014-1-23,20,10,2,6,0,-5,75,64,47,30.20,29.96,2,0,4,0.00
2014-1-24,17,11,5,4,0,-4,75,62,44,30.33,30.08,2,0,4,0.00
2014-1-25,34,23,14,27,16,3,92,75,60,30.08,29.39,12,0,12,0.02
2014-1-26,23,18,12,20,7,0,87,64,49,29.92,29.41,7,0,11,0.00
2014-1-27,40,25,18,39,18,7,100,76,56,30.05,29.56,11,1,16,0.01
2014-1-28,19,15,9,7,1,-4,65,55,42,30.35,30.05,9,2,14,0.00
2014-1-29,24,18,14,7,4,1,71,54,39,30.28,30.02,10,1,11,0.00
2014-1-30,28,18,7,14,8,0,79,64,51,30.48,30.23,5,0,10,0.00
2014-1-31,39,29,15,27,21,9,93,72,55,30.26,30.07,6,0,9,0.00